RH
2359 2368 2390 2402 2421 2443 2432 2432 2438 2460 2466 2482 2488 2454 2405 2369 2374 2374 2384 2420 2482 2538 2588 2713 2824 2908 3020 3114 3226 3335 3400 3430 3397 3387 3371 3346 3337 3310 3304 3372 3442 3493 3498 3416 3360 3334 3421 3471 3486 3482 3448 3387 3312 3201 2955 2771 2661 2627 2666 2734 2840 2999 3266 3515 3731 3921 4084 4156 4157 4068 3824 3556 3374 3299 3394 3309 3111 2879 2730 2610 2512 2452 2437 2448 2479 2510 2553 2593 2624 2655 2665 2643 2596 2554 2534 2534 2542 2571 2640 2713 2800 2870 2933
2523 2507 2494 2495 2501 2520 2520 2520 2531 2548 2548 2548 2572 2599 2555 2516 2495 2478 2511 2538 2579 2605 2720 2858 2966 2962 3056 3250 3443 3660 3784 3856 3888 3875 3821 3738 3637 3482 3372 3372 3437 3530 3550 3532 3505 3580 3665 3686 3698 3713 3671 3670 3634 3498 3184 2966 2824 2794 2805 2859 2960 3092 3298 3551 3772 3952 4029 4040 4024 3928 3766 3552 3381 3318 3357 3284 3103 2910 2784 2655 2560 2468 2464 2480 2517 2565 2616 2659 2724 2760 2788 2769 2733 2685 2632 2609 2610 2623 2680 2748 2857 2946 3015
2690 2666 2653 2637 2632 2608 2597 2630 2647 2641 2630 2635 2660 2665 2709 2670 2643 2582 2582 2632 2703 2735 2891 3013 3089 3057 3201 3416 3651 3845 3987 4070 4123 4091 4077 4048 3971 3830 3685 3612 3546 3510 3559 3660 3796 3940 3985 4014 4027 3989 3894 3879 3883 3861 3605 3369 3197 3049 3020 3057 3124 3207 3396 3613 3809 3925 3927 3898 3840 3799 3701 3572 3469 3400 3404 3323 3148 2980 2845 2722 2588 2516 2512 2525 2590 2635 2691 2737 2795 2826 2870 2876 2831 2773 2697 2666 2659 2685 2770 2834 2913 3008 3061
2997 2965 2929 2908 2879 2874 2844 2855 2861 2861 2894 2916 2915 2885 2951 2951 2907 2786 2726 2751 2816 2910 3005 3076 3149 3233 3440 3664 3866 3999 4113 4215 4297 4349 4351 4291 4170 4042 3956 3851 3742 3616 3724 3916 4097 4181 4251 4302 4287 4239 4133 4132 4194 4280 4148 3907 3607 3364 3296 3312 3352 3457 3609 3766 3885 3952 3891 3808 3748 3717 3692 3632 3558 3532 3497 3372 3217 3081 2957 2803 2669 2585 2562 2595 2637 2699 2736 2786 2850 2886 2909 2925 2902 2833 2708 2694 2702 2773 2846 2921 3002 3062 3057
3496 3453 3412 3380 3350 3351 3349 3330 3331 3320 3353 3386 3385 3363 3396 3380 3309 3174 3064 2998 2998 3070 3124 3165 3252 3388 3615 3848 4052 4180 4279 4416 4572 4752 4758 4703 4582 4501 4449 4371 4235 4030 4063 4196 4323 4305 4321 4333 4323 4298 4324 4380 4476 4608 4603 4382 4052 3795 3690 3694 3720 3787 3865 3935 4010 4043 3978 3874 3787 3746 3744 3704 3679 3638 3590 3449 3300 3162 3055 2898 2775 2677 2631 2648 2690 2738 2796 2846 2921 2979 3002 3018 2987 2907 2790 2746 2752 2822 2909 2990 3046 3088 3071
4015 3954 3905 3884 3854 3843 3836 3825 3828 3851 3851 3862 3892 3900 3938 3938 3889 3757 3581 3427 3287 3243 3259 3347 3470 3637 3834 4027 4227 4385 4498 4657 4838 5046 5092 5141 5130 5146 5036 4932 4782 4583 4470 4513 4624 4754 4679 4606 4591 4615 4645 4713 4807 4932 4957 4765 4493 4218 4174 4156 4157 4129 4149 4160 4193 4217 4172 4066 3945 3887 3898 3862 3790 3710 3655 3526 3385 3270 3177 3071 2918 2773 2723 2703 2740 2801 2863 2943 3001 3090 3137 3145 3113 3021 2930 2880 2856 2890 2941 2983 3026 3057 3062
4430 4391 4370 4331 4332 4293 4260 4249 4255 4239 4223 4253 4291 4354 4426 4463 4485 4425 4243 4040 3829 3664 3614 3649 3761 3930 4109 4273 4417 4554 4658 4784 4921 5130 5267 5437 5549 5620 5485 5350 5185 5030 4872 4821 4867 5034 5007 4981 4983 5017 5006 5010 5093 5205 5235 5104 4897 4660 4648 4616 4540 4434 4470 4478 4493 4510 4446 4340 4215 4146 4107 4029 3938 3837 3787 3661 3527 3459 3381 3234 3088 2910 2813 2774 2796 2849 2916 2985 3054 3143 3236 3246 3207 3142 3078 3034 3029 3098 3071 3042 3002 3004 3022
4381 4427 4460 4499 4540 4584 4590 4612 4612 4612 4590 4584 4603 4652 4709 4786 4824 4848 4799 4661 4491 4282 4098 4031 4038 4156 4290 4420 4527 4581 4659 4760 4893 5085 5316 5530 5705 5836 5833 5762 5608 5427 5316 5188 5082 5025 5084 5155 5220 5266 5235 5204 5195 5284 5398 5390 5288 5152 5086 4976 4879 4852 4919 4951 4931 4913 4783 4627 4485 4386 4291 4172 4084 4039 4013 3918 3781 3705 3577 3430 3247 3041 2905 2837 2823 2859 2917 2978 3088 3229 3345 3401 3380 3321 3251 3215 3198 3237 3270 3224 3135 3044 3040
3801 3795 3811 3888 3979 4117 4235 4340 4445 4516 4603 4699 4770 4832 4870 4899 4923 4966 5032 5018 4908 4743 4540 4348 4229 4198 4243 4327 4412 4488 4548 4659 4757 4895 5134 5370 5627 5874 6001 6040 6005 5943 5798 5693 5605 5521 5515 5532 5539 5552 5537 5401 5330 5345 5546 5667 5703 5632 5449 5332 5296 5435 5522 5476 5412 5329 5177 4983 4771 4604 4435 4339 4297 4371 4379 4268 4085 3903 3743 3543 3343 3131 2959 2854 2809 2830 2869 2982 3112 3296 3467 3562 3602 3587 3536 3477 3418 3391 3449 3465 3380 3264 3194
3263 3196 3191 3219 3266 3357 3434 3527 3615 3711 3837 3985 4100 4218 4343 4471 4602 4748 4873 4961 4947 4859 4678 4486 4299 4136 4105 4134 4201 4283 4362 4433 4501 4611 4814 5075 5322 5586 5770 5963 6104 6225 6185 6128 6099 6108 6065 6015 5957 5903 5811 5684 5567 5562 5749 5908 5956 5895 5817 5824 5893 6027 5983 5891 5774 5698 5575 5360 5109 4796 4605 4545 4594 4734 4747 4615 4382 4132 3887 3659 3437 3216 3027 2913 2848 2816 2871 2995 3152 3371 3568 3705 3770 3781 3763 3737 3673 3637 3654 3698 3690 3622 3483
2982 2907 2907 2918 2954 2976 3020 3045 3077 3104 3132 3182 3231 3274 3351 3466 3617 3815 4006 4204 4363 4462 4407 4313 4173 4019 3872 3835 3881 3965 4058 4137 4197 4263 4441 4649 4861 5048 5277 5502 5736 5912 5984 6026 6057 6121 6127 6088 6021 5880 5759 5722 5710 5737 5877 6009 6148 6269 6335 6367 6377 6380 6334 6173 6026 5999 5909 5713 5460 5120 4891 4832 4901 5044 5081 4979 4745 4433 4132 3868 3608 3360 3179 3065 2970 2940 2987 3066 3213 3415 3638 3816 3916 3952 3939 3963 3970 3959 3976 4007 4021 3946 3798
2788 2727 2719 2724 2751 2795 2850 2910 2965 3004 3009 3026 3043 3090 3101 3101 3117 3161 3260 3386 3557 3732 3837 3847 3800 3701 3618 3548 3484 3480 3598 3724 3844 3943 4077 4252 4427 4568 4745 4968 5180 5332 5426 5534 5627 5726 5825 5786 5698 5574 5612 5677 5738 5824 5953 6188 6423 6615 6640 6607 6563 6559 6435 6281 6151 6115 6101 6006 5851 5586 5335 5205 5173 5291 5365 5311 5156 4890 4554 4244 3923 3616 3426 3276 3189 3139 3174 3218 3340 3520 3771 3966 4116 4194 4222 4256 4288 4340 4417 4430 4373 4211 3999
2720 2653 2624 2616 2632 2651 2714 2774 2840 2879 2923 2967 2998 3048 3048 3048 3026 2998 3021 3046 3106 3216 3332 3364 3337 3273 3223 3198 3155 3111 3174 3311 3498 3676 3838 3965 4099 4236 4393 4606 4802 4948 5045 5161 5257 5331 5429 5468 5484 5556 5779 5815 5791 5827 6023 6361 6668 6816 6763 6737 6734 6659 6479 6303 6184 6137 6207 6274 6248 6096 5829 5640 5565 5612 5669 5674 5598 5398 5068 4720 4343 4005 3768 3600 3499 3440 3452 3485 3569 3741 3974 4189 4375 4519 4566 4595 4658 4749 4855 4869 4745 4527 4217
2655 2590 2548 2517 2511 2513 2555 2604 2654 2712 2762 2812 2834 2856 2883 2894 2888 2877 2855 2866 2905 2980 3068 3123 3120 3037 2965 2945 2939 2909 2914 3032 3217 3476 3635 3740 3865 3999 4183 4409 4610 4778 4913 5035 5139 5188 5270 5412 5582 5839 5991 5963 5874 5779 5929 6273 6651 6954 6956 6976 6960 6815 6601 6437 6295 6172 6328 6548 6688 6643 6431 6249 6135 6092 6145 6101 6019 5831 5528 5170 4805 4445 4171 4008 3912 3880 3872 3911 3968 4094 4294 4478 4692 4845 4895 4955 5011 5107 5182 5178 5075 4845 4527
2565 2503 2422 2357 2332 2315 2349 2385 2427 2508 2581 2640 2673 2670 2674 2715 2731 2745 2700 2674 2696 2757 2850 2949 3004 2970 2890 2851 2857 2848 2801 2876 3041 3299 3420 3540 3640 3801 3979 4187 4421 4634 4837 4955 5055 5159 5373 5595 5845 6107 6191 6143 5978 5780 5767 6011 6446 6915 7085 7140 7052 6871 6848 6734 6555 6360 6515 6841 7126 7209 7076 6912 6788 6705 6703 6611 6450 6212 5925 5579 5207 4825 4531 4345 4251 4230 4288 4376 4468 4584 4723 4898 5057 5204 5276 5290 5318 5309 5396 5435 5392 5215 4857
2466 2377 2301 2232 2184 2131 2137 2162 2221 2305 2427 2484 2531 2542 2555 2577 2598 2611 2560 2523 2530 2571 2658 2751 2846 2884 2865 2864 2877 2888 2796 2807 2910 3159 3311 3410 3497 3626 3807 4018 4227 4453 4661 4826 4950 5152 5481 5761 6006 6222 6257 6139 5941 5681 5606 5758 6154 6680 7044 7135 7075 6901 7000 7010 6937 6781 6852 7127 7428 7572 7546 7484 7432 7344 7213 7056 6840 6560 6277 5932 5550 5105 4767 4565 4457 4432 4513 4644 4824 5010 5166 5350 5519 5632 5649 5599 5510 5466 5665 5834 5885 5740 5263
2457 2410 2340 2276 2212 2152 2099 2105 2111 2165 2247 2329 2395 2431 2431 2436 2463 2510 2506 2474 2443 2457 2546 2635 2730 2832 2877 2912 2955 2982 2913 2891 2957 3143 3309 3369 3429 3523 3704 3918 4135 4323 4514 4712 4913 5137 5437 5709 5923 6046 6014 5903 5718 5523 5452 5571 5902 6410 6867 7143 7213 7074 7104 7249 7340 7253 7208 7356 7521 7585 7700 7852 7954 7906 7684 7402 7108 6793 6529 6172 5785 5311 4960 4729 4616 4578 4653 4748 4938 5182 5432 5712 5928 6070 5991 5885 5785 5783 6167 6394 6441 6293 5648
2561 2538 2507 2465 2440 2398 2322 2274 2227 2193 2219 2279 2313 2345 2334 2343 2348 2381 2425 2452 2465 2458 2526 2615 2709 2806 2910 3005 3073 3113 3116 3164 3217 3364 3435 3465 3480 3541 3678 3867 4073 4277 4499 4697 4884 5050 5296 5513 5683 5749 5720 5621 5543 5452 5445 5555 5780 6193 6734 7138 7336 7274 7418 7506 7554 7500 7490 7471 7480 7516 7708 7965 8166 8237 7996 7667 7318 6994 6716 6391 6002 5549 5191 4980 4843 4838 4885 4975 5101 5264 5535 5859 6145 6345 6232 6165 6214 6385 6754 6891 6840 6667 5901
2668 2634 2605 2607 2615 2602 2560 2504 2440 2386 2324 2322 2331 2380 2387 2382 2368 2394 2438 2477 2498 2508 2543 2587 2680 2779 2940 3087 3231 3360 3449 3539 3663 3741 3691 3651 3625 3663 3785 3962 4180 4392 4652 4828 4927 4987 5140 5276 5422 5512 5484 5435 5393 5377 5424 5520 5759 6160 6779 7173 7414 7539 7602 7652 7702 7775 7790 7684 7604 7592 7770 7995 8194 8257 8091 7845 7529 7196 6912 6634 6296 5891 5554 5320 5193 5152 5223 5293 5344 5404 5648 5993 6289 6456 6371 6416 6614 6940 7167 7191 7041 6724 5949
2755 2712 2668 2644 2640 2630 2610 2601 2553 2511 2446 2421 2402 2451 2523 2580 2609 2635 2633 2666 2688 2690 2667 2658 2698 2784 2948 3170 3405 3625 3755 3877 3962 4008 3951 3872 3849 3874 3996 4222 4445 4623 4910 5068 5089 5060 5087 5179 5274 5374 5383 5391 5373 5392 5448 5553 5825 6352 6988 7343 7547 7707 7590 7652 7773 7920 7953 7976 7971 7960 8104 8255 8339 8332 8202 8034 7833 7566 7324 7029 6696 6279 5965 5731 5586 5520 5538 5523 5559 5674 5923 6217 6404 6468 6503 6638 6829 7117 7379 7334 7072 6563 5835
2887 2824 2769 2716 2684 2641 2632 2601 2586 2560 2521 2480 2461 2488 2565 2667 2766 2846 2884 2923 2940 2970 2912 2863 2805 2827 2959 3190 3470 3729 3920 4046 4080 4043 3999 3977 3983 4047 4201 4405 4623 4793 5034 5165 5184 5168 5152 5182 5268 5382 5449 5448 5467 5523 5634 5746 6055 6568 7176 7490 7644 7696 7662 7748 7882 7979 8155 8298 8441 8518 8632 8674 8659 8539 8437 8358 8237 8073 7848 7513 7092 6588 6318 6154 6041 5959 5885 5883 5973 6124 6329 6482 6591 6684 6789 6846 6986 7283 7462 7270 6799 6125 5554
2993 2966 2925 2879 2827 2762 2750 2696 2626 2595 2548 2512 2476 2459 2530 2611 2727 2834 2936 3015 3072 3159 3132 3107 3016 2971 3033 3198 3432 3691 3919 4040 4073 3985 3974 3955 4004 4124 4337 4561 4749 4897 5031 5095 5143 5167 5217 5257 5338 5434 5468 5448 5462 5573 5777 5951 6186 6589 7210 7535 7664 7696 7778 7938 8118 8288 8442 8549 8616 8745 8891 8840 8651 8382 8365 8434 8449 8380 8220 7866 7405 6875 6646 6509 6438 6377 6379 6407 6465 6571 6698 6805 6948 7128 7018 6983 7109 7465 7340 6900 6245 5595 5309
3084 3072 3026 2966 2932 2895 2875 2810 2754 2673 2602 2545 2490 2438 2457 2481 2552 2652 2807 2923 3033 3129 3227 3262 3271 3255 3246 3309 3460 3651 3854 3971 4035 4041 4015 4007 4054 4177 4406 4614 4824 4968 5021 5070 5115 5240 5412 5473 5504 5542 5510 5470 5476 5629 5928 6154 6373 6653 7210 7587 7796 7867 7925 8080 8250 8355 8448 8518 8580 8620 8656 8468 8115 7745 7878 8155 8396 8437 8329 8036 7597 7098 6878 6741 6691 6774 6900 6919 6875 6856 7122 7315 7423 7376 7027 6993 7154 7329 6878 6313 5785 5415 5384
3187 3117 3075 3041 3021 2987 2966 2921 2862 2776 2689 2605 2536 2470 2399 2384 2421 2493 2640 2776 2920 3030 3123 3218 3354 3479 3508 3516 3602 3768 3962 4091 4189 4270 4228 4197 4188 4259 4368 4528 4666 4804 4891 4971 5118 5343 5605 5710 5754 5778 5770 5755 5801 5940 6178 6396 6620 6890 7385 7744 8033 8262 8175 8192 8196 8112 8126 8273 8445 8540 8333 8018 7702 7423 7579 7979 8355 8447 8360 8053 7680 7279 7080 6941 6933 7098 7268 7285 7274 7427 7709 7854 7755 7323 6935 6889 6887 6708 6260 5973 5799 5784 5708
3323 3221 3165 3135 3145 3125 3077 3024 2949 2852 2776 2709 2624 2543 2452 2380 2379 2408 2524 2635 2782 2901 2991 3084 3207 3384 3552 3612 3690 3844 4105 4289 4439 4584 4675 4659 4589 4534 4524 4509 4559 4615 4732 4902 5129 5349 5578 5777 5920 5945 5995 6087 6200 6305 6430 6679 7005 7339 7762 8145 8409 8472 8433 8272 8102 7913 7848 7936 8130 8360 8141 7868 7676 7518 7751 8129 8437 8436 8348 8059 7710 7353 7079 6943 6997 7239 7549 7712 7861 8113 8246 8195 7898 7312 6963 6755 6571 6270 6162 6146 6143 6090 5811
3480 3376 3321 3277 3235 3177 3116 3058 2985 2938 2885 2840 2769 2707 2604 2520 2476 2449 2488 2596 2704 2823 2934 2997 3065 3171 3373 3532 3645 3766 4070 4362 4595 4807 5076 5171 5155 5014 4860 4751 4666 4634 4768 4937 5110 5215 5367 5552 5737 5899 6071 6229 6361 6471 6628 6902 7309 7880 8338 8633 8732 8670 8565 8338 8074 7790 7644 7708 7898 8135 7957 7786 7734 7813 8202 8440 8536 8464 8378 8155 7809 7349 6982 6826 6962 7459 7941 8279 8494 8615 8429 8095 7666 7146 6873 6620 6435 6318 6386 6392 6263 5977 5518
3641 3532 3421 3309 3204 3143 3110 3105 3084 3056 3039 2997 2960 2901 2837 2751 2667 2591 2597 2639 2718 2806 2893 2948 3005 3026 3154 3336 3530 3680 3968 4292 4629 4859 5113 5301 5336 5154 4976 4844 4735 4665 4773 4870 4931 5050 5209 5416 5657 5865 6172 6348 6506 6780 7154 7433 7712 8090 8580 8766 8794 8735 8602 8349 8022 7630 7627 7788 7960 8041 7799 7752 7920 8295 8596 8713 8691 8648 8485 8113 7665 7244 6984 7000 7368 8107 8520 8720 8704 8470 8021 7563 7129 6765 6579 6495 6472 6528 6483 6342 6077 5665 5235
3729 3580 3390 3275 3171 3116 3113 3145 3176 3196 3228 3179 3151 3112 3076 3012 2916 2805 2785 2801 2832 2868 2935 2974 3013 2995 3023 3106 3299 3559 3834 4138 4472 4766 4971 5060 5112 5091 4932 4866 4868 4932 5025 5071 5161 5380 5514 5726 5941 6177 6384 6607 6918 7346 7577 7704 7913 8317 8711 8830 8791 8717 8584 8273 7952 7778 7924 8070 8193 8229 8162 8231 8362 8633 8787 8756 8723 8745 8768 8633 8240 7525 7146 7355 7954 8656 8766 8617 8299 7895 7529 7235 7041 6934 6913 6920 6902 6748 6498 6224 5934 5666 5404
3618 3470 3327 3223 3127 3068 3032 3075 3137 3245 3282 3281 3249 3235 3224 3177 3098 2975 2910 2929 2960 3018 3087 3122 3122 3070 3031 3045 3113 3306 3584 3893 4251 4676 4857 4931 4944 4974 4820 4746 4684 4720 4784 4935 5163 5391 5529 5757 6051 6413 6657 6904 7201 7557 7657 7750 7956 8495 8784 8854 8847 8826 8673 8467 8302 8322 8459 8477 8462 8582 8653 8694 8663 8587 8573 8720 8918 8984 8974 8941 8746 8174 8148 8425 8738 8799 8590 8348 8059 7804 7701 7648 7623 7605 7637 7620 7478 7149 6785 6426 6120 5946 5727
3309 3201 3097 3004 2916 2818 2761 2779 2830 2954 3055 3112 3145 3179 3224 3258 3238 3148 3004 2953 2955 3038 3193 3271 3310 3244 3218 3218 3223 3229 3363 3585 3940 4437 4878 5028 4966 4845 4755 4676 4649 4727 4922 5107 5337 5696 5941 6274 6594 6827 6985 7115 7198 7252 7545 8040 8515 8695 8849 8908 8917 8935 8857 8787 8746 8674 8516 8403 8340 8348 8484 8538 8587 8639 8808 8945 9018 9016 8934 8780 8627 8511 8610 8759 8849 8839 8652 8416 8215 8080 8110 8120 8058 7910 7831 7713 7499 7127 6780 6472 6238 6074 5902
3045 2921 2807 2674 2589 2484 2407 2356 2377 2439 2581 2674 2754 2807 2888 3035 3179 3265 3180 3059 2965 2941 3064 3216 3348 3441 3462 3498 3514 3495 3451 3471 3605 3882 4545 4878 4958 4773 4685 4657 4703 4909 5312 5583 5788 6031 6308 6499 6559 6423 6694 7012 7329 7642 7972 8376 8673 8713 8763 8752 8702 8599 8581 8584 8558 8351 8147 8143 8206 8354 8470 8509 8562 8701 8813 8785 8720 8634 8568 8557 8562 8639 8804 8909 8928 8840 8670 8513 8391 8382 8383 8265 8039 7790 7591 7340 7072 6785 6552 6387 6272 6168 5954
3000 2843 2668 2549 2430 2275 2128 1998 1924 1891 1991 2138 2270 2348 2457 2622 2842 3076 3204 3190 3132 3043 3030 3063 3180 3334 3522 3648 3737 3793 3737 3670 3612 3594 3929 4423 4846 4928 4760 4604 4514 4514 4926 5390 5893 6374 6588 6796 6969 7104 7330 7494 7598 7679 7807 8029 8279 8501 8520 8449 8345 8227 8295 8373 8382 8275 8207 8337 8517 8529 8504 8523 8560 8579 8509 8426 8392 8443 8624 8780 8912 8930 8908 8863 8788 8692 8573 8465 8395 8348 8229 8044 7815 7591 7378 7144 6896 6666 6559 6482 6413 6317 6209
3137 2977 2780 2590 2418 2255 2088 1919 1760 1624 1654 1725 1852 1970 2053 2195 2356 2607 2899 3137 3260 3276 3232 3188 3169 3176 3324 3576 3837 4079 4150 4088 3916 3692 3565 3779 4242 4835 4956 4866 4682 4439 4705 5016 5385 5755 6142 6507 6870 7162 7384 7612 7792 7975 7884 7888 7965 8114 8204 8146 8054 8096 8284 8370 8423 8360 8290 8315 8376 8423 8405 8476 8555 8491 8509 8514 8518 8580 8709 8787 8807 8760 8673 8592 8498 8401 8290 8197 8082 7989 7846 7692 7538 7391 7251 7064 6857 6667 6598 6523 6417 6342 6304
3143 3009 2846 2657 2461 2287 2146 1985 1852 1714 1655 1640 1697 1746 1809 1896 2029 2203 2455 2751 3027 3294 3448 3480 3403 3247 3238 3437 3789 4241 4538 4596 4486 4161 3793 3590 3669 4155 4672 4880 4832 4635 4980 5328 5557 5462 5701 6022 6327 6559 6779 7087 7491 7964 8041 7985 7868 7724 7812 7859 7919 8059 8277 8412 8463 8407 8377 8350 8337 8341 8399 8522 8623 8604 8605 8637 8678 8699 8708 8626 8508 8349 8223 8121 8027 7946 7795 7687 7589 7500 7433 7354 7260 7164 7023 6871 6721 6570 6460 6333 6212 6098 6034
3071 2931 2834 2725 2590 2451 2285 2162 2010 1872 1781 1715 1690 1690 1687 1735 1826 1980 2177 2383 2593 2835 3147 3435 3600 3589 3481 3472 3645 4100 4616 4916 5014 4856 4471 4079 3799 3763 4166 4449 4638 4726 5404 6009 6348 6304 5993 5946 6006 6012 6082 6373 6831 7398 7670 7832 7879 7793 7699 7791 7973 8125 8245 8296 8291 8283 8227 8245 8290 8301 8426 8538 8624 8675 8702 8702 8688 8637 8482 8268 8015 7773 7604 7478 7361 7216 7100 7015 6960 6900 6858 6787 6726 6664 6626 6532 6407 6243 6065 5917 5770 5646 5499
2990 2907 2856 2798 2737 2657 2541 2423 2302 2178 2062 1952 1855 1795 1716 1656 1710 1788 1964 2123 2289 2473 2670 3020 3410 3812 3924 3798 3691 3843 4455 4997 5385 5497 5260 4888 4442 4032 4015 4188 4445 4741 5662 6362 6763 6805 6587 6315 6054 5936 5975 6233 6684 7159 7409 7607 7724 7760 7678 7791 7991 8185 8216 8267 8252 8199 8176 8200 8251 8273 8333 8392 8418 8459 8548 8598 8609 8530 8313 8005 7667 7306 7060 6874 6724 6602 6580 6584 6640 6679 6657 6604 6508 6427 6269 6113 5946 5773 5638 5507 5357 5195 5027
2910 2918 2902 2884 2845 2796 2730 2664 2604 2555 2490 2418 2302 2163 1995 1810 1700 1676 1762 1887 2059 2259 2431 2662 3040 3585 4316 4506 4435 4310 4621 5082 5534 5823 5788 5540 5124 4590 4301 4233 4394 4741 5765 6646 7111 6898 6759 6476 6191 5962 5938 6206 6642 7147 7488 7674 7777 7796 7656 7753 7998 8328 8393 8412 8377 8302 8275 8240 8176 8103 8086 8059 8073 8191 8362 8462 8507 8421 8160 7786 7376 6993 6742 6534 6434 6387 6484 6576 6633 6645 6537 6363 6146 5936 5732 5523 5365 5220 5137 5055 4952 4834 4705
2891 2937 2952 2945 2918 2896 2866 2840 2810 2805 2815 2802 2762 2693 2474 2258 2036 1841 1796 1839 1958 2171 2389 2624 2870 3209 4107 4962 5537 5688 5539 5708 6005 6239 6177 5915 5526 5052 4644 4470 4492 4755 5662 6593 7237 7207 6846 6490 6205 6091 5982 6083 6381 6951 7536 7827 7893 7844 7668 7707 7999 8450 8600 8576 8423 8166 8116 8084 8038 7932 7857 7779 7800 7977 8170 8262 8223 8076 7758 7367 7001 6696 6495 6331 6265 6317 6474 6551 6507 6358 6082 5793 5477 5196 4909 4720 4618 4588 4608 4611 4580 4536 4453
2903 2966 2984 3027 3020 2996 2960 2927 2922 2928 2954 2984 3035 3032 2940 2800 2589 2374 2180 2111 2115 2255 2533 2791 3070 3334 3824 4748 5673 6254 6209 6345 6556 6754 6619 6290 5815 5257 4909 4783 4876 5143 5690 6319 6932 7374 7015 6560 6151 5841 5537 5496 5787 6491 7284 7733 7868 7858 7740 7774 7986 8415 8671 8700 8565 8318 8134 8065 8080 8065 7966 7840 7738 7741 7826 7801 7638 7340 6974 6638 6382 6259 6193 6184 6190 6289 6414 6355 6154 5834 5424 5038 4680 4384 4159 4059 4079 4180 4262 4310 4345 4341 4291
2918 2961 3016 3073 3117 3135 3141 3097 3094 3029 3046 3072 3129 3212 3249 3216 3121 2976 2802 2689 2623 2632 2791 3050 3373 3765 4189 5020 5879 6384 6476 6590 6742 6897 6904 6698 6253 5588 5173 5180 5478 5963 6024 6216 6587 7143 6997 6466 5874 5425 4999 4907 5249 6063 6950 7457 7719 7779 7812 7905 8105 8388 8635 8693 8613 8459 8281 8165 8137 8126 8087 7937 7718 7538 7465 7302 6987 6580 6159 5847 5643 5603 5754 5924 6048 6109 6135 5923 5584 5156 4748 4399 4140 3938 3877 3925 4009 4115 4198 4225 4225 4186 4137
2990 3042 3139 3242 3362 3470 3474 3443 3348 3265 3166 3140 3154 3209 3309 3391 3442 3443 3390 3341 3288 3222 3245 3375 3632 4027 4596 5435 6215 6634 6818 6947 7021 7060 7041 6991 6713 6007 5399 5467 6040 6977 6776 6484 6280 6368 6232 5749 5249 5022 4666 4603 4937 5692 6580 7157 7478 7625 7730 7887 8084 8369 8530 8591 8558 8405 8338 8313 8274 8180 8125 7922 7629 7334 7141 6865 6540 6165 5809 5475 5255 5217 5391 5559 5650 5637 5542 5330 5016 4662 4392 4185 4025 3946 3976 4068 4151 4230 4235 4196 4141 4081 4049
3124 3209 3387 3569 3773 3907 3907 3826 3691 3555 3405 3299 3234 3212 3291 3388 3517 3641 3704 3747 3733 3698 3674 3716 3857 4117 4752 5596 6379 6795 6906 6991 7013 6980 7007 7094 6995 6426 5820 5891 6500 7502 7341 6974 6393 5717 5343 4968 4658 4613 4534 4619 4943 5569 6383 6985 7365 7558 7639 7774 7963 8190 8355 8404 8400 8348 8309 8258 8209 8135 8123 7945 7624 7271 6980 6640 6267 5924 5620 5372 5195 5163 5283 5326 5285 5146 4949 4823 4660 4515 4408 4307 4233 4200 4220 4239 4282 4294 4291 4235 4209 4179 4161
3357 3501 3701 3900 4060 4178 4163 4109 4002 3875 3747 3655 3560 3509 3516 3545 3620 3723 3785 3818 3813 3824 3859 3945 4064 4243 4728 5441 6216 6865 7054 7072 6978 6828 6820 6939 6924 6459 6059 5995 6360 7250 7299 7160 6740 6026 5474 5011 4719 4699 4927 5120 5375 5754 6365 6887 7255 7452 7548 7685 7830 8006 8145 8262 8306 8245 8190 8067 7955 7934 7998 7882 7639 7352 7049 6632 6224 5823 5504 5295 5204 5238 5338 5289 5120 4935 4696 4567 4517 4508 4562 4571 4530 4485 4436 4401 4360 4323 4326 4342 4362 4371 4392
3624 3734 3855 3998 4101 4207 4231 4230 4219 4209 4218 4212 4204 4158 4118 4070 4017 3960 3921 3865 3873 3956 4113 4225 4348 4409 4684 5173 5840 6613 7120 7321 7259 7023 6797 6785 6737 6365 5899 5663 5780 6449 6963 7033 6813 6345 5916 5520 5259 5282 5625 5792 5888 6021 6426 6797 7112 7330 7496 7646 7799 7911 7989 8110 8185 8188 7995 7816 7688 7713 7794 7705 7549 7363 7063 6645 6185 5798 5499 5310 5266 5414 5490 5409 5217 4978 4768 4627 4605 4674 4748 4754 4749 4671 4570 4485 4412 4375 4408 4466 4509 4556 4582
3748 3840 3897 3982 4078 4155 4240 4341 4452 4609 4774 4902 4984 5008 4971 4892 4711 4485 4274 4211 4300 4572 4765 4824 4763 4638 4709 5009 5524 6215 6851 7325 7579 7508 7126 6867 6702 6530 5782 5295 5129 5416 6221 6579 6577 6249 5980 5841 5835 5915 6241 6383 6411 6383 6572 6845 7105 7307 7529 7691 7800 7846 7868 7918 7995 8012 7803 7618 7521 7565 7578 7500 7374 7248 6944 6573 6196 5881 5655 5546 5556 5693 5732 5628 5494 5326 5165 5078 5006 5005 4990 4947 4873 4751 4647 4574 4524 4496 4546 4588 4657 4702 4694
3899 3975 4037 4101 4163 4261 4416 4616 4862 5136 5387 5580 5728 5810 5834 5755 5571 5243 4948 4931 5194 5696 5918 5815 5487 5085 4938 5049 5390 5946 6532 7046 7421 7616 7381 7067 6771 6590 5807 5126 4620 4462 5273 5945 6344 6290 6170 6145 6195 6259 6547 6745 6849 6805 6930 7106 7315 7491 7649 7729 7739 7690 7702 7737 7732 7684 7538 7425 7372 7393 7337 7236 7126 6980 6748 6476 6257 6097 6007 5969 5965 6004 5979 5922 5854 5799 5730 5646 5530 5385 5236 5093 4983 4851 4766 4724 4691 4689 4712 4745 4766 4794 4761
4095 4227 4345 4429 4560 4729 4911 5162 5416 5685 5916 6131 6259 6383 6463 6438 6279 5977 5715 5795 6120 6651 6849 6700 6316 5873 5636 5576 5716 6026 6415 6765 7077 7379 7355 7072 6671 6324 5795 5103 4451 4012 4491 5284 6063 6423 6442 6432 6430 6438 6659 6912 7134 7226 7319 7432 7573 7660 7735 7703 7637 7548 7571 7567 7484 7324 7224 7152 7107 7080 7043 6937 6810 6680 6497 6374 6328 6335 6330 6311 6282 6241 6156 6121 6123 6186 6212 6118 5941 5693 5434 5212 5071 4974 4924 4896 4894 4881 4865 4862 4861 4861 4839
4343 4532 4753 4979 5170 5373 5544 5713 5898 6098 6293 6459 6596 6707 6743 6770 6663 6427 6251 6345 6602 6940 7076 7016 6864 6681 6591 6532 6517 6535 6618 6709 6852 7116 7196 6990 6566 5979 5479 4934 4427 4023 4181 4784 5566 6254 6355 6418 6468 6540 6710 6963 7237 7465 7549 7617 7666 7665 7744 7708 7631 7517 7489 7427 7281 7077 6964 6860 6765 6740 6735 6679 6557 6424 6354 6357 6438 6520 6524 6494 6449 6396 6277 6248 6278 6376 6443 6392 6202 5888 5544 5301 5165 5100 5085 5068 5055 5023 4979 4959 4959 4948 4899
4513 4757 5084 5371 5655 5851 5973 6102 6213 6338 6551 6733 6839 6849 6850 6850 6791 6635 6479 6461 6583 6816 6957 7088 7155 7229 7289 7305 7278 7210 7068 6951 6901 6984 7039 6937 6549 5870 5363 5021 4787 4614 4536 4811 5337 6011 6335 6601 6785 6921 7052 7258 7440 7584 7599 7557 7535 7504 7625 7691 7676 7557 7432 7317 7177 7012 6866 6701 6589 6504 6548 6539 6490 6368 6354 6451 6584 6672 6680 6671 6614 6545 6398 6329 6371 6499 6569 6496 6304 5942 5585 5350 5247 5237 5205 5170 5137 5082 5054 5027 4997 4987 4895
4559 4846 5162 5466 5724 5931 6105 6243 6385 6531 6730 6897 7001 6972 6930 6896 6870 6771 6607 6507 6501 6660 6880 7085 7266 7421 7523 7520 7493 7447 7263 7079 6918 6891 6858 6754 6476 5998 5709 5714 5838 5913 5693 5773 6108 6650 7048 7347 7565 7724 7726 7716 7674 7587 7494 7414 7363 7330 7451 7542 7597 7561 7414 7310 7213 7087 6957 6767 6600 6478 6548 6568 6541 6419 6474 6592 6720 6768 6741 6731 6674 6579 6429 6380 6443 6586 6641 6552 6337 5953 5598 5374 5296 5289 5268 5226 5157 5090 5072 5068 5032 4983 4855
4505 4796 5067 5327 5558 5752 5998 6238 6462 6616 6776 6934 7078 7155 7134 7102 7061 7024 6822 6649 6559 6634 6901 7205 7416 7537 7545 7484 7390 7337 7201 7024 6845 6764 6721 6565 6363 6188 6237 6456 6679 6774 6775 6755 6785 6916 7166 7404 7611 7770 7812 7798 7711 7557 7413 7309 7255 7223 7238 7253 7304 7345 7321 7303 7246 7172 7080 6916 6765 6654 6707 6697 6638 6570 6655 6740 6809 6763 6723 6682 6648 6575 6439 6399 6454 6616 6674 6597 6384 6001 5661 5457 5340 5313 5256 5194 5127 5095 5099 5078 5040 4954 4766
4425 4665 4909 5109 5320 5553 5879 6193 6423 6574 6660 6867 7102 7355 7446 7457 7421 7391 7196 6940 6779 6788 7079 7379 7615 7716 7637 7525 7404 7330 7260 7099 6921 6808 6686 6481 6300 6220 6437 6604 6715 6740 6827 6825 6807 6857 7010 7209 7437 7630 7735 7802 7735 7570 7403 7282 7207 7133 7062 7057 7055 7073 7141 7186 7193 7174 7082 6954 6857 6791 6852 6859 6800 6765 6818 6837 6815 6729 6682 6693 6681 6626 6513 6469 6511 6621 6671 6571 6360 6030 5694 5490 5348 5262 5204 5170 5143 5133 5137 5105 5022 4855 4642
4284 4477 4671 4858 5080 5396 5820 6179 6410 6476 6571 6787 7134 7505 7733 7837 7840 7797 7643 7387 7199 7187 7430 7679 7839 7876 7731 7608 7491 7416 7323 7169 6992 6856 6715 6531 6398 6354 6538 6660 6687 6671 6640 6620 6616 6686 6813 7024 7258 7516 7751 7874 7843 7629 7449 7323 7221 7098 7060 7040 7046 7061 7127 7164 7147 7123 7039 6913 6816 6778 6857 6912 6948 6940 6933 6910 6846 6748 6713 6766 6774 6738 6653 6599 6596 6662 6651 6504 6237 5880 5586 5401 5264 5183 5153 5149 5170 5218 5214 5123 4962 4736 4501
4097 4242 4355 4553 4830 5203 5766 6146 6405 6426 6569 6816 7175 7613 7893 8092 8162 8115 7995 7838 7712 7690 7821 7930 8048 8084 8151 8152 8085 7961 7846 7683 7459 7156 6868 6670 6522 6504 6668 6761 6782 6679 6525 6407 6382 6474 6705 6943 7191 7446 7725 7871 7879 7715 7543 7396 7256 7168 7171 7159 7165 7174 7226 7252 7215 7139 7027 6877 6730 6638 6751 6859 6959 7005 6991 6927 6862 6816 6751 6755 6801 6845 6780 6705 6670 6654 6573 6325 5988 5621 5390 5219 5151 5101 5152 5196 5266 5323 5282 5121 4873 4589 4408
3860 3941 4068 4286 4596 5052 5624 6046 6326 6452 6604 6909 7286 7726 7994 8160 8234 8205 8190 8135 8048 7914 7904 7970 8085 8299 8485 8473 8311 8044 7941 7868 7805 7687 7381 7034 6748 6573 6661 6779 6830 6770 6561 6384 6279 6348 6602 6879 7148 7345 7526 7678 7762 7760 7602 7421 7270 7227 7388 7415 7394 7332 7374 7413 7390 7278 7084 6829 6605 6478 6494 6603 6751 6866 6886 6857 6802 6770 6718 6733 6823 6955 6907 6802 6693 6622 6430 6075 5668 5316 5162 5085 5074 5121 5209 5306 5393 5422 5309 5072 4799 4534 4379
3674 3774 3916 4131 4432 4813 5299 5746 6112 6386 6659 7023 7454 7863 8060 8187 8234 8173 8164 8141 8052 7805 7777 7909 8145 8387 8469 8530 8427 8152 7895 7800 7768 7763 7635 7440 7167 6878 6735 6717 6771 6803 6650 6462 6314 6314 6548 6842 7121 7309 7371 7466 7584 7678 7621 7508 7449 7484 7655 7755 7799 7759 7818 7816 7712 7472 7119 6721 6412 6210 6174 6241 6421 6663 6791 6834 6793 6721 6658 6738 6878 7060 7009 6891 6715 6600 6329 5873 5412 5091 5027 5043 5096 5178 5302 5428 5512 5504 5298 5022 4744 4544 4423
3619 3749 3871 4008 4195 4465 4824 5235 5637 6085 6502 6998 7509 7955 8130 8199 8205 8117 8072 8027 7931 7729 7734 7965 8255 8437 8404 8382 8293 8096 7845 7724 7684 7665 7599 7502 7373 7188 6957 6801 6682 6693 6635 6519 6420 6376 6604 6924 7246 7435 7398 7407 7459 7564 7663 7698 7722 7746 7873 7968 8041 8062 8135 8095 7892 7507 7001 6497 6134 5921 5951 6088 6361 6709 6870 6874 6759 6610 6596 6742 6942 7126 7064 6924 6759 6613 6266 5782 5312 5065 5068 5110 5172 5268 5433 5556 5598 5518 5269 5012 4762 4594 4527
3665 3770 3816 3875 3951 4073 4332 4640 5034 5504 6084 6724 7363 7930 8146 8238 8206 8107 8051 8019 7962 7867 7921 8124 8327 8376 8277 8161 8077 7977 7756 7597 7504 7486 7484 7468 7398 7307 7174 6995 6798 6656 6577 6504 6474 6504 6765 7054 7368 7551 7577 7596 7619 7716 7843 7914 7916 7860 7898 7937 7961 7962 8040 8005 7774 7313 6673 6165 5865 5849 6046 6282 6541 6829 6885 6807 6674 6525 6578 6752 6979 7121 7089 6971 6831 6679 6285 5822 5400 5203 5187 5210 5292 5429 5597 5676 5654 5495 5226 4995 4818 4681 4695
3675 3708 3730 3763 3841 3918 4018 4205 4480 4877 5516 6271 7053 7802 8198 8327 8285 8141 8059 8045 8090 8183 8311 8404 8448 8387 8243 8099 7988 7885 7687 7545 7444 7362 7312 7268 7291 7321 7324 7252 7138 6994 6854 6798 6810 6876 6979 7142 7329 7501 7665 7799 7938 8028 8070 8015 7921 7828 7766 7762 7770 7747 7808 7698 7412 6902 6295 5916 5861 6184 6340 6452 6568 6708 6767 6741 6640 6502 6602 6793 7011 7152 7148 7063 6928 6813 6409 5977 5612 5434 5398 5415 5485 5651 5770 5785 5660 5431 5199 5021 4902 4879 4918